Home   Weather   Differdange   Past weeks

Flag for Luxembourg Past Weather in Differdange, Luxembourg — Yesterday and Last 2 Weeks

Now
32 °F

Partly sunny.


Feels Like: 24 °F
Forecast: 17 / 25 °F
Wind: 9 mph from Northeast

Location: Luxembourg Airport

Current Time: Jan 16, 2017 at 1:59:50 pm

Latest Report: Jan 16, 2017 at 1:20 pm


Visibility: N/A

Pressure: 30.24 "Hg

Humidity: 80%

Dew Point: 27 °F

Location of DifferdangeLocation

Past Weather in Differdange — Graph

°F

Differdange Temperature Yesterday

Maximum temperature yesterday: 34 °F (at 11:20 am)
Minimum temperature yesterday: 28 °F (at 4:20 am)
Average temperature yesterday: 31 °F

High & Low Weather Summary for the Past Weeks

 TemperatureHumidityPressure
High43 °F (Jan 11, 5:50 pm)100% (Jan 1, 12:20 pm)30.66 "Hg (Jan 1, 12:20 pm)
Low16 °F (Jan 7, 3:50 am)59% (Jan 5, 4:50 pm)29.12 "Hg (Jan 13, 12:20 am)
Average31 °F92%30.12 "Hg
* Reported Jan 1 12:20 pm — Jan 16 12:50 pm, Differdange, Weather by CustomWeather, © 2017

Note: Actual official high and low records may vary slightly from our data, if they occured in-between our weather recording intervals... More about our weather records

Advertising

Differdange Weather History for the Previous 24 Hours

Scroll right to see more
 ConditionsComfort  
Time TempWeatherWind HumidityBarometerVisibility
12:50 pm
Mon, Jan 16
32 °FPartly sunny.9 mph80%30.24 "HgN/A
12:20 pm30 °FBroken clouds.10 mph86%30.24 "HgN/A
11:50 am32 °FPassing clouds.13 mph80%30.24 "HgN/A
11:20 am30 °FSunny.9 mph86%30.24 "Hg10 mi
10:50 am30 °FBroken clouds.5 mph86%30.24 "HgN/A
10:20 am30 °FSnow flurries. Broken clouds.5 mph80%30.21 "Hg6 mi
9:50 am30 °FBroken clouds.7 mph80%30.21 "HgN/A
9:20 am27 °FSnow flurries. Broken clouds.6 mph93%30.21 "HgN/A
8:50 am27 °FScattered clouds.6 mph86%30.21 "HgN/A
8:20 am27 °FPassing clouds.8 mph93%30.18 "HgN/A
7:50 am25 °FPassing clouds.9 mph100%30.18 "HgN/A
7:20 am25 °FPassing clouds.6 mph93%30.18 "HgN/A
6:50 am25 °FPassing clouds.7 mph93%30.18 "HgN/A
6:20 am25 °FPassing clouds.6 mph93%30.18 "HgN/A
5:50 am27 °FPassing clouds.9 mph93%30.18 "HgN/A
5:20 am27 °FPassing clouds.7 mph93%30.18 "HgN/A
4:50 am27 °FPassing clouds.9 mph93%30.18 "Hg6 mi
4:20 am28 °FPassing clouds.9 mph93%30.18 "Hg4 mi
3:50 am28 °FPassing clouds.7 mph93%30.15 "HgN/A
3:20 am28 °FIce fog.6 mph93%30.15 "Hg1 mi
2:50 am28 °FLight freezing rain. Low clouds.8 mph100%30.15 "Hg3 mi
2:20 am30 °FLight snow. Passing clouds.5 mph93%30.15 "Hg4 mi
1:50 am30 °FPassing clouds.3 mph93%30.15 "Hg6 mi
1:20 am30 °FMostly cloudy.2 mph93%30.15 "HgN/A
12:50 am30 °FLight snow. Partly cloudy.2 mph93%30.15 "HgN/A
12:20 am30 °FLight snow. Partly cloudy.1 mph93%30.15 "HgN/A
11:50 pm
Sun, Jan 15
32 °FLight snow. Passing clouds.3 mph87%30.15 "HgN/A
11:20 pm30 °FPassing clouds.5 mph93%30.15 "HgN/A
10:50 pm30 °FPassing clouds.5 mph93%30.15 "HgN/A
10:20 pm32 °FSnow flurries. Passing clouds.3 mph87%30.15 "HgN/A
9:50 pm32 °FSnow flurries. Passing clouds.3 mph87%30.15 "HgN/A
9:20 pm32 °FPassing clouds.2 mph87%30.15 "HgN/A
8:50 pm32 °FSnow flurries. Passing clouds.2 mph87%30.15 "HgN/A
8:20 pm32 °FPassing clouds.2 mph87%30.15 "HgN/A
7:50 pm32 °FPassing clouds.6 mph87%30.15 "HgN/A
7:20 pm32 °FPassing clouds.5 mph87%30.15 "HgN/A
6:50 pm32 °FPassing clouds.7 mph87%30.15 "HgN/A
6:20 pm32 °FPassing clouds.5 mph93%30.12 "HgN/A
5:50 pm32 °FPassing clouds.5 mph87%30.12 "HgN/A
5:20 pm32 °FPassing clouds.3 mph87%30.12 "HgN/A
4:50 pm32 °FScattered clouds.6 mph93%30.12 "HgN/A
4:20 pm32 °FBroken clouds.7 mph87%30.12 "HgN/A
3:50 pm34 °FPartly sunny.6 mph81%30.12 "HgN/A
3:20 pm34 °FPartly sunny.6 mph81%30.12 "HgN/A
2:50 pm34 °FScattered clouds.7 mph81%30.12 "HgN/A
2:20 pm34 °FScattered clouds.5 mph81%30.12 "HgN/A
1:50 pm34 °FScattered clouds.8 mph75%30.12 "HgN/A
1:20 pm34 °FPassing clouds.8 mph75%30.12 "HgN/A
Weather by CustomWeather, © 2017

See weather overviewHow to use our weather pages